Breckenridge, CO

4:11 AM MST on February 10, 2016 (GMT -0700)
Copper Mountain

Weather History for KCCU - May, 2014

Change the Weather History Date:

Wednesday, May 14, 2014

  Actual Average (KLXV) Record (KLXV)
Temperature  
Mean Temperature 24 °F -  
Max Temperature 30 °F 53 °F 65 °F (1984)
Min Temperature 17 °F 28 °F 10 °F (2014)
Degree Days  
Heating Degree Days 42    
Moisture  
Dew Point 17 °F    
Average Humidity 74    
Maximum Humidity 80    
Minimum Humidity 55    
Precipitation  
Precipitation 0.00 in - - ()
Sea Level Pressure  
Sea Level Pressure 30.48 in    
Wind  
Wind Speed 16 mph (West)    
Max Wind Speed 28 mph    
Max Gust Speed 37 mph    
Visibility 5 miles    
Events Snow    
Averages and records for this station are not official NWS values.
T = Trace of Precipitation, MM = Missing Value Source: NWS Daily Summary

Daily Weather History Graph

Daily Weather History Graph

Search for Another Location

Airport or City:

Trip Planner

Search our weather history database for the weather conditions in past years. The results will help you decide how hot, cold, wet, or windy it might be!

Date:

Astronomy

May. 14, 2014 Rise Set
Actual Time 5:51 AM MDT 8:10 PM MDT
Civil Twilight 5:21 AM MDT 8:41 PM MDT
Nautical Twilight 4:44 AM MDT 9:18 PM MDT
Astronomical Twilight 4:03 AM MDT 9:59 PM MDT
Moon 8:19 PM MDT (5/14) 5:52 AM MDT (5/14)
Length of Visible Light 15h 19m
Length of Day
14h 19m
Full, 100% of the Moon is Illuminated
May 14
Full
May 14
Full
May 21
Last Quarter
May 28
New
Jun 5
First Quarter

Hourly Weather History & Observations

Time (MDT) Temp. Windchill Dew Point Humidity Pressure Visibility Wind Dir Wind Speed Gust Speed Precip Events Conditions
12:16 AM 19.4 °F 4.1 °F 10.4 °F 68% 30.51 in 10.0 mi West 18.4 mph - N/A   Scattered Clouds
12:36 AM 19.4 °F 5.0 °F 10.4 °F 68% 30.51 in 10.0 mi West 16.1 mph - N/A   Clear
12:56 AM 19.4 °F 5.0 °F 10.4 °F 68% 30.51 in 10.0 mi West 16.1 mph - N/A   Clear
1:16 AM 19.4 °F 6.0 °F 10.4 °F 68% 30.50 in 10.0 mi West 13.8 mph - N/A   Clear
1:36 AM 19.4 °F 6.0 °F 10.4 °F 68% 30.50 in 10.0 mi West 13.8 mph - N/A   Scattered Clouds
1:56 AM 19.4 °F 5.0 °F 10.4 °F 68% 30.49 in 10.0 mi West 16.1 mph - N/A   Scattered Clouds
2:16 AM 19.4 °F 5.0 °F 12.2 °F 74% 30.49 in 10.0 mi West 16.1 mph - N/A   Clear
2:36 AM 19.4 °F 5.5 °F 12.2 °F 74% 30.49 in 10.0 mi West 15.0 mph - N/A   Clear
3:16 AM 17.6 °F 3.7 °F 12.2 °F 79% 30.49 in 10.0 mi West 13.8 mph - N/A   Mostly Cloudy
3:36 AM 17.6 °F 5.0 °F 12.2 °F 79% 30.48 in 10.0 mi West 11.5 mph 16.1 mph N/A   Overcast
3:56 AM 19.4 °F 6.6 °F 14.0 °F 80% 30.49 in 10.0 mi West 12.7 mph - N/A   Overcast
4:16 AM 19.4 °F 7.2 °F 14.0 °F 80% 30.49 in 7.0 mi West 11.5 mph - N/A   Overcast
4:36 AM 19.4 °F 7.2 °F 14.0 °F 80% 30.48 in 4.0 mi West 11.5 mph - N/A   Haze
5:16 AM 19.4 °F 5.5 °F 14.0 °F 80% 30.48 in 10.0 mi West 15.0 mph - N/A   Overcast
5:36 AM 19.4 °F 5.5 °F 14.0 °F 80% 30.48 in 10.0 mi West 15.0 mph - N/A   Overcast
6:16 AM 19.4 °F 10.4 °F 14.0 °F 80% 30.48 in 10.0 mi West 6.9 mph - N/A   Overcast
6:36 AM 17.6 °F 5.7 °F 12.2 °F 79% 30.48 in 10.0 mi West 10.4 mph - N/A   Overcast
6:56 AM 19.4 °F 7.2 °F 14.0 °F 80% 30.48 in 10.0 mi West 11.5 mph - N/A   Overcast
7:16 AM 19.4 °F 8.6 °F 14.0 °F 80% 30.49 in 10.0 mi West 9.2 mph - N/A   Mostly Cloudy
7:36 AM 19.4 °F 7.9 °F 14.0 °F 80% 30.49 in 7.0 mi West 10.4 mph - N/A Snow Light Snow
7:56 AM 19.4 °F 7.2 °F 14.0 °F 80% 30.49 in 7.0 mi West 11.5 mph - N/A Snow Light Snow
9:16 AM 23.0 °F 10.6 °F 17.6 °F 80% 30.50 in 4.0 mi West 13.8 mph 19.6 mph N/A Snow Light Snow
9:36 AM 23.0 °F 10.6 °F 17.6 °F 80% 30.50 in 4.0 mi West 13.8 mph 20.7 mph N/A Snow Light Snow
9:56 AM 24.8 °F 11.9 °F 19.4 °F 80% 30.49 in 2.0 mi West 16.1 mph 23.0 mph N/A Snow Light Snow
10:16 AM 24.8 °F 12.9 °F 19.4 °F 80% 30.50 in 4.0 mi West 13.8 mph 21.9 mph N/A Snow Light Snow
10:36 AM 24.8 °F 11.1 °F 19.4 °F 80% 30.49 in 7.0 mi West 18.4 mph 26.5 mph N/A   Overcast
10:56 AM 24.8 °F 10.3 °F 17.6 °F 74% 30.49 in 5.0 mi WNW 20.7 mph 28.8 mph N/A   Haze
11:16 AM 28.4 °F 14.4 °F 14.0 °F 55% 30.49 in 7.0 mi West 23.0 mph 29.9 mph N/A   Overcast
11:36 AM 28.4 °F 13.3 °F 17.6 °F 64% 30.49 in 1.0 mi WNW 27.6 mph 33.4 mph N/A Snow Light Snow
11:56 AM 28.4 °F 15.8 °F 19.4 °F 69% 30.50 in 1.2 mi WNW 18.4 mph 24.2 mph N/A   Haze
12:16 PM 26.6 °F 11.4 °F 17.6 °F 69% 30.49 in 0.8 mi WNW 25.3 mph 32.2 mph N/A Snow Light Snow
12:36 PM 28.4 °F 15.1 °F 17.6 °F 64% 30.49 in 7.0 mi WNW 20.7 mph 32.2 mph N/A   Overcast
12:56 PM 28.4 °F 18.0 °F 17.6 °F 64% 30.49 in 1.0 mi West 12.7 mph 25.3 mph N/A Snow Light Snow
1:16 PM 28.4 °F 17.0 °F 17.6 °F 64% 30.48 in 2.0 mi WNW 15.0 mph - N/A Snow Light Snow
1:36 PM 28.4 °F 15.4 °F 19.4 °F 69% 30.48 in 1.0 mi WNW 19.6 mph 31.1 mph N/A Snow Light Snow
1:56 PM 28.4 °F 15.4 °F 19.4 °F 69% 30.49 in 2.0 mi West 19.6 mph 27.6 mph N/A Snow Light Snow
2:16 PM 28.4 °F 13.5 °F 17.6 °F 64% 30.47 in 1.2 mi WNW 26.5 mph 32.2 mph N/A Snow Light Snow
2:37 PM 28.4 °F 15.1 °F 17.6 °F 64% 30.48 in 1.8 mi West 20.7 mph 31.1 mph N/A Snow Light Snow
2:56 PM 28.4 °F 16.6 °F 21.2 °F 74% 30.48 in 5.0 mi West 16.1 mph - N/A   Haze
3:16 PM 30.2 °F 17.8 °F 17.6 °F 60% 30.47 in 5.0 mi WNW 19.6 mph 28.8 mph N/A   Haze
3:36 PM 26.6 °F 13.1 °F 21.2 °F 80% 30.47 in 0.2 mi West 19.6 mph 36.8 mph N/A Snow Snow
3:56 PM 26.6 °F 12.7 °F 21.2 °F 80% 30.47 in 0.2 mi West 20.7 mph 32.2 mph N/A Snow Light Snow
4:16 PM 28.4 °F 14.7 °F 21.2 °F 74% 30.47 in 0.5 mi West 21.9 mph 26.5 mph N/A   Haze
4:36 PM 30.2 °F 18.9 °F 21.2 °F 69% 30.47 in 10.0 mi West 16.1 mph 21.9 mph N/A   Overcast
4:56 PM 28.4 °F 15.1 °F 21.2 °F 74% 30.47 in 3.0 mi WNW 20.7 mph 28.8 mph N/A Snow Light Snow
5:16 PM 28.4 °F 15.4 °F 21.2 °F 74% 30.46 in 2.0 mi West 19.6 mph 26.5 mph N/A Snow Light Snow
5:56 PM 26.6 °F 15.7 °F 21.2 °F 80% 30.47 in 0.2 mi West 12.7 mph 21.9 mph N/A Snow Light Snow
6:16 PM 28.4 °F 16.6 °F 21.2 °F 74% 30.46 in 10.0 mi West 16.1 mph - N/A   Overcast
6:36 PM 28.4 °F 17.0 °F 21.2 °F 74% 30.46 in 10.0 mi West 15.0 mph 23.0 mph N/A Snow Light Snow
6:56 PM 28.4 °F 15.8 °F 21.2 °F 74% 30.46 in 7.0 mi West 18.4 mph 23.0 mph N/A   Overcast
7:16 PM 28.4 °F 15.1 °F 21.2 °F 74% 30.46 in 1.5 mi West 20.7 mph 29.9 mph N/A Snow Light Snow
7:36 PM 26.6 °F 12.7 °F 19.4 °F 74% 30.46 in 7.0 mi West 20.7 mph 26.5 mph N/A   Overcast
7:56 PM 26.6 °F 11.7 °F 19.4 °F 74% 30.46 in 1.0 mi West 24.2 mph 29.9 mph N/A Snow Light Snow
8:16 PM 26.6 °F 14.3 °F 21.2 °F 80% 30.46 in 0.5 mi West 16.1 mph - N/A Snow Light Snow
8:36 PM 26.6 °F 18.2 °F 21.2 °F 80% 30.47 in 3.0 mi SW 8.1 mph - N/A Snow Light Snow
8:56 PM 24.8 °F 11.9 °F 19.4 °F 80% 30.46 in 5.0 mi West 16.1 mph 23.0 mph N/A   Haze
9:16 PM 26.6 °F 13.8 °F 19.4 °F 74% 30.46 in 7.0 mi WSW 17.3 mph - N/A   Overcast
9:36 PM 26.6 °F 12.7 °F 17.6 °F 69% 30.46 in 1.8 mi West 20.7 mph 28.8 mph N/A Snow Light Snow
9:56 PM 26.6 °F 12.0 °F 17.6 °F 69% 30.46 in 4.0 mi West 23.0 mph - N/A Snow Light Snow
10:16 PM 28.4 °F - 19.4 °F 69% 30.46 in 3.0 mi North - - N/A Snow Light Snow
10:36 PM 26.6 °F - 19.4 °F 74% 30.46 in 3.0 mi North - - N/A Snow Light Snow
10:56 PM 26.6 °F - 19.4 °F 74% 30.46 in 2.0 mi North - - N/A Snow Light Snow
11:16 PM 26.6 °F - 19.4 °F 74% 30.45 in 1.0 mi North - - N/A Snow Light Snow
11:36 PM 26.6 °F 13.4 °F 21.2 °F 80% 30.45 in 1.0 mi West 18.4 mph - N/A Snow Light Snow
11:56 PM 26.6 °F 12.7 °F 21.2 °F 80% 30.45 in 0.8 mi West 20.7 mph - N/A Snow Snow